Regional Weather Roundup
Issued by NWS

Home | Current Version | Previous Version | Text Only | Print | Product List | Glossary Off
Versions: 1 2 3 4 5 6 7 8 9 10 11 12 13 14 15 16 17 18 19 20 21 22 23 24 25 26 27 28 29 30 31 32 33 34 35 36 37 38 39 40 41 42 43 44 45 46 47 48 49 50

209
ASUS43 KOAX 261302
RWRNE

WEATHER ROUNDUP FOR NEBRASKA
NATIONAL WEATHER SERVICE OMAHA NE
800 AM CDT THU APR 26 2018

NOTES: SATELLITE DATA IS BEING USED TO AUGMENT CLOUD COVER ABOVE
       12000 FEET.
       "FAIR" INDICATES FEW OR NO CLOUDS BELOW 12,000 FEET WITH NO
       SIGNIFICANT WEATHER AND/OR OBSTRUCTIONS TO VISIBILITY.


NEZ001>004-019>022-054>056-261400-
NEBRASKA PANHANDLE

CITY           SKY/WX    TMP DP  RH WIND       PRES   REMARKS
SCOTTSBLUFF    CLOUDY    47  34  60 N15G22    30.21R
ALLIANCE       MOSUNNY   43  33  68 N25       30.15R
CHADRON        PTSUNNY   46  32  58 N9        30.19R
GORDON         FAIR      44  34  68 NW16G22   30.15R
KIMBALL        MOSUNNY   43  30  60 N22G31    30.19R
SIDNEY         PTSUNNY   46  31  55 N22G30    30.16R
$$

NEZ057>060-069>072-079>082-261400-
SOUTHWEST NEBRASKA

CITY           SKY/WX    TMP DP  RH WIND       PRES   REMARKS
NORTH PLATTE   CLOUDY    48  37  65 N13G18    30.00R
IMPERIAL       CLOUDY    49  35  58 NW23G33   30.04R
LEXINGTON      CLOUDY    39  35  87 NE3       29.97S
MCCOOK         CLOUDY    43  36  76 W7        29.94R
OGALLALA       CLOUDY    51  35  53 N26G35    30.06R
$$

NEZ005>010-023>029-035>040-094-261400-
NORTH CENTRAL NEBRASKA

CITY           SKY/WX    TMP DP  RH WIND       PRES   REMARKS
VALENTINE      MOSUNNY   47  34  60 N18G40    30.06R
AINSWORTH      PTSUNNY   45  36  70 N25G33    30.03R
BROKEN BOW     PTSUNNY   48  36  63 NW17G26   29.97R
O`NEILL        MOSUNNY   49  37  62 NW16      29.95R
ORD            MOSUNNY   38  36  92 CALM      29.94S
THEDFORD       CLOUDY    49  36  60 N26G32    30.02R
$$

NEZ041-046>049-061>064-073>077-083>087-261400-
SOUTH CENTRAL NEBRASKA

CITY           SKY/WX    TMP DP  RH WIND       PRES   REMARKS
GRAND ISLAND   CLOUDY    43  38  82 W5        29.98R
AURORA         CLOUDY    41  38  91 SW7       29.98R
HASTINGS       CLOUDY    39  37  92 W5        29.98R
HEBRON         CLOUDY    37  37  99 W3        29.98F
HOLDREGE       CLOUDY    39  37  91 W3        29.97R
KEARNEY        MOSUNNY   40  36  86 NW3       29.98R
YORK             N/A     39  39 100 W8        29.98R WCI  34
$$

NEZ011>018-030>034-042>045-261400-
NORTHEAST NEBRASKA

CITY           SKY/WX    TMP DP  RH WIND       PRES   REMARKS
NORFOLK        CLOUDY    45  38  76 SW13      29.92F
ALBION         PTSUNNY   42  38  86 CALM      29.95F
BLAIR          MOSUNNY   42  36  81 S5        29.96S
COLUMBUS       CLOUDY    42  37  82 W3        29.98R
FREMONT        CLOUDY    45  38  77 W6        29.98R
TEKAMAH        CLOUDY    41  36  82 S3        29.97R
WAYNE          MOSUNNY   44  42  91 SW5       29.94R
$$

NEZ050>053-065>068-078-088>093-261400-
SOUTHEAST NEBRASKA

CITY           SKY/WX    TMP DP  RH WIND       PRES   REMARKS
LINCOLN        CLOUDY    39  36  89 S6        29.98F WCI  35
OMAHA EPPLEY   CLOUDY    43  37  79 SE6       29.97S
BEATRICE       MOSUNNY   38  36  94 CALM      30.00S
FALLS CITY     PTSUNNY   41  37  86 W6        30.01R
NEBRASKA CITY  CLOUDY    41  40  96 SW5       29.98F
PLATTSMOUTH    CLOUDY    44  37  76 W5        29.97S
$$

NEZ044-045-051>053-067-261400-
OMAHA AREA

CITY           SKY/WX    TMP DP  RH WIND       PRES   REMARKS
OMAHA EPPLEY   CLOUDY    43  37  79 SE6       29.97S
BLAIR          MOSUNNY   42  36  81 S5        29.96S
FREMONT        CLOUDY    45  38  77 W6        29.98R
MILLARD        MOSUNNY   43  37  80 CALM      29.98S
PLATTSMOUTH    CLOUDY    44  37  76 W5        29.97S
WAHOO          FAIR      43  35  73 SW3       29.96S
$$




USA.gov is the U.S. government's official web portal to all federal, state and local government web resources and services.